Weather History for 78958 - December, 2013

Change the Weather History Date:

Thursday, December 19, 2013

  Actual Average Record
Temperature  
Mean Temperature 78 °F -  
Max Temperature 83 °F 83 °F - ()
Min Temperature 74 °F 73 °F - ()
Cooling Degree Days 14    
Growing Degree Days 28 (Base 50)    
Moisture  
Dew Point 73 °F    
Average Humidity 78    
Maximum Humidity 100    
Minimum Humidity 61    
Precipitation  
Precipitation 0.08 in - - ()
Sea Level Pressure  
Sea Level Pressure 29.92 in    
Wind  
Wind Speed 10 mph ()    
Max Wind Speed 21 mph    
Max Gust Speed -    
Visibility 6.6 miles    
Events Rain    
T = Trace of Precipitation, MM = Missing Value Source: Averaged Metar Reports

Daily Weather History Graph

Daily Weather History Graph

Search for Another Location

Airport or City:

Trip Planner

Search our weather history database for the weather conditions in past years. The results will help you decide how hot, cold, wet, or windy it might be!

Date:

Astronomy

Dec. 19, 2013 Rise Set
Actual Time 6:21 AM AST 5:47 PM AST
Civil Twilight 5:58 AM AST 6:10 PM AST
Nautical Twilight 5:32 AM AST 6:36 PM AST
Astronomical Twilight 5:05 AM AST 7:02 PM AST
Moon 7:48 PM AST (12/19) 7:54 AM AST (12/19)
Length of Visible Light 12h 11m
Length of Day
11h 25m
Waning Gibbous, 95% of the Moon is Illuminated
Dec 19
Waning Gibbous
Dec 25
Last Quarter
Jan 1
New
Jan 7
First Quarter
Jan 16
Full

Hourly Weather History & Observations

Time (AST) Temp. Heat Index Dew Point Humidity Pressure Visibility Wind Dir Wind Speed Gust Speed Precip Events Conditions
12:00 AM 77.0 °F - 71.6 °F 83% 29.92 in 6.2 mi East 11.5 mph - N/A   Scattered Clouds
1:00 AM 77.0 °F - 71.6 °F 83% 29.92 in 6.2 mi East 10.4 mph - N/A   Scattered Clouds
2:00 AM 77 °F - 71 °F 75% 29.91 in 11 mi East 6.9 mph - -   Widespread Dust
2:00 AM 77.0 °F - 69.8 °F 78% 29.89 in 6.2 mi East 6.9 mph - N/A   Scattered Clouds
3:00 AM 77.0 °F - 71.6 °F 83% 29.89 in 6.2 mi ENE 6.9 mph - N/A   Scattered Clouds
4:00 AM 77.0 °F - 71.6 °F 83% 29.89 in 6.2 mi East 6.9 mph - N/A   Scattered Clouds
5:00 AM 76 °F - 71 °F 81% 29.90 in 11 mi ENE 5.8 mph - -   Widespread Dust
5:00 AM 77.0 °F - 71.6 °F 83% 29.89 in 6.2 mi ENE 5.8 mph - N/A   Partly Cloudy
6:00 AM 77.0 °F - 71.6 °F 83% 29.89 in 6.2 mi NE 5.8 mph - N/A   Partly Cloudy
7:00 AM 77.0 °F - 71.6 °F 83% 29.92 in 6.2 mi Calm Calm - N/A   Mostly Cloudy
8:00 AM 80 °F - 74 °F 76% 29.96 in 6 mi ENE 5.8 mph - -   Partly Cloudy
8:00 AM 78.8 °F - 73.4 °F 83% 29.95 in 6.2 mi ENE 5.8 mph - N/A   Scattered Clouds
9:00 AM 77.0 °F - 75.2 °F 94% 29.98 in 3.7 mi East 11.5 mph - N/A Rain Light Rain Showers
10:00 AM 82.4 °F 89.5 °F 75.2 °F 79% 29.98 in 5.0 mi East 13.8 mph - N/A   Scattered Clouds
11:00 AM 84 °F - 75 °F 69% 29.98 in 5 mi ESE 16.1 mph - - Rain Light Rain Showers
11:00 AM 84.2 °F 92.3 °F 75.2 °F 74% 29.98 in 5.0 mi ESE 16.1 mph - N/A Rain Light Rain Showers
12:00 PM 75.2 °F - 75.2 °F 100% 29.95 in 2.5 mi ESE 20.7 mph - N/A Rain Rain Showers
1:00 PM 80.6 °F 86.2 °F 75.2 °F 84% 29.92 in 6.2 mi ESE 13.8 mph - N/A Rain Light Rain Showers
2:00 PM 82 °F - 75 °F 75% 29.90 in 7 mi East 16.1 mph - -   Mostly Cloudy
2:00 PM 82.4 °F 89.5 °F 75.2 °F 79% 29.89 in 6.2 mi East 16.1 mph - N/A   Scattered Clouds
3:00 PM 82.4 °F 88.2 °F 73.4 °F 74% 29.89 in 6.2 mi ESE 17.3 mph - N/A   Scattered Clouds
4:00 PM 82.4 °F 88.2 °F 73.4 °F 74% 29.89 in 6.2 mi East 18.4 mph - N/A   Mostly Cloudy
5:00 PM 81 °F - 73 °F 71% 29.89 in 10 mi East 18.4 mph - -   Widespread Dust
5:00 PM 80.6 °F 85.4 °F 73.4 °F 79% 29.89 in 6.2 mi East 18.4 mph - N/A   Scattered Clouds
6:00 PM 80.6 °F 85.4 °F 73.4 °F 79% 29.89 in 6.2 mi ESE 6.9 mph - N/A Rain Light Rain Showers
7:00 PM 78.8 °F - 71.6 °F 78% 29.89 in 6.2 mi East 11.5 mph - N/A   Partly Cloudy
8:00 PM 80 °F - 72 °F 70% 29.91 in 10 mi East 17.3 mph - -   Widespread Dust
8:00 PM 80.6 °F 84.6 °F 71.6 °F 74% 29.89 in 6.2 mi East 17.3 mph - N/A   Partly Cloudy
9:00 PM 78.8 °F - 71.6 °F 78% 29.89 in 6.2 mi East 13.8 mph - N/A   Partly Cloudy
10:00 PM 80.6 °F 83.9 °F 69.8 °F 70% 29.92 in 6.2 mi East 18.4 mph - N/A   Partly Cloudy
11:00 PM 80 °F - 69 °F 61% 29.93 in 11 mi East 17.3 mph - -   Widespread Dust
11:00 PM 80.6 °F 83.9 °F 69.8 °F 70% 29.92 in 6.2 mi East 17.3 mph - N/A   Partly Cloudy